Theta_e
328 323 323 324 325 325 320 319 303 312 308 297 299 300 299 305 306 302 307 308 307 314 316 317 316 317 316 314 314 320 320 314 316 309 308 323 330 333 338 340 342 343 343 343 345 346 346 349 349 348 347 347 347 347 347 346 345 344 344 343 342 342 342 342 343 343 345 348 348 346 345 345 344 343 343 342 341 341 342 342 341 341 341 340 340 341 340 340 340 340 339 339 339 338 337 337 336
322 323 325 326 325 324 315 317 307 301 302 299 298 301 302 303 303 303 302 310 312 313 315 314 315 316 319 318 316 321 320 323 324 323 325 329 330 334 337 341 342 342 343 343 344 343 343 344 348 349 347 347 347 347 347 346 345 344 344 343 342 343 343 344 343 346 347 347 347 346 345 345 343 343 342 342 340 339 339 340 340 340 340 340 340 340 339 340 339 339 339 339 338 338 338 337 337
325 325 326 327 323 319 316 317 301 298 298 296 297 299 304 302 302 306 314 314 315 316 317 317 318 317 316 318 315 317 314 327 325 325 324 330 325 328 336 342 342 343 344 343 343 342 342 343 346 347 346 346 346 345 346 346 345 344 344 343 342 341 342 344 344 344 347 347 346 346 345 344 343 343 342 342 341 341 340 340 340 340 340 340 339 338 339 339 339 339 338 338 337 337 337 337 337
330 329 325 323 315 321 312 310 305 299 296 297 296 303 302 303 306 312 314 316 315 316 318 315 314 320 316 312 316 325 322 322 327 327 324 326 325 331 335 340 343 344 344 344 343 342 341 343 345 347 347 345 345 344 344 346 345 344 343 342 341 341 341 344 347 348 347 346 346 346 344 343 344 343 342 341 340 340 339 338 339 339 339 340 339 339 338 338 338 338 338 337 337 336 336 336 336
329 327 326 323 319 314 314 308 302 301 296 297 295 302 302 303 308 310 312 313 314 315 315 317 315 322 321 317 320 316 318 327 327 329 327 329 331 333 337 340 342 343 343 343 343 342 341 343 345 344 343 343 344 343 343 344 346 344 342 341 341 341 341 345 348 348 347 347 346 345 345 345 343 342 342 341 340 339 339 338 338 339 339 338 339 338 338 339 338 338 338 337 337 337 336 335 335
323 325 336 327 315 319 313 304 301 297 302 303 299 300 302 304 308 310 309 311 315 315 316 316 314 316 315 318 326 320 327 321 326 327 329 326 330 333 338 340 342 342 343 343 342 341 341 341 343 344 343 342 342 343 343 344 346 344 342 340 341 341 342 343 346 346 345 346 346 345 345 343 342 341 340 340 339 338 338 338 338 338 338 338 337 339 338 339 338 338 337 337 336 336 335 334 334
323 321 326 325 320 320 305 302 302 302 301 305 302 302 303 304 309 310 309 309 315 315 318 315 319 317 313 321 325 327 330 331 329 330 331 328 330 333 337 337 339 341 343 343 342 341 340 341 343 344 344 344 341 341 342 346 345 343 341 340 341 342 342 342 347 346 346 346 345 345 344 342 341 341 340 339 338 338 338 338 338 338 337 338 338 338 338 338 337 337 336 337 337 336 335 334 334
328 322 321 314 311 311 304 304 304 304 302 305 304 304 305 306 308 309 308 308 307 305 312 315 316 313 314 323 319 326 332 333 334 334 331 329 330 333 336 338 338 341 342 342 341 340 343 340 343 343 343 342 341 340 341 345 344 342 341 341 342 342 342 344 346 346 345 346 346 345 343 342 341 340 339 339 338 339 339 338 338 337 337 336 337 336 337 336 336 336 337 336 336 335 334 334 334
325 320 327 316 307 313 306 304 306 308 304 305 304 308 311 308 308 307 306 310 309 310 310 311 311 307 314 316 321 326 328 334 335 334 333 331 332 333 333 334 339 340 342 340 339 339 339 340 341 342 342 342 341 341 341 341 342 342 341 341 341 341 341 343 346 345 345 346 345 344 343 342 341 340 340 340 339 338 338 337 336 336 336 336 336 336 336 336 335 336 336 336 335 335 335 334 334
319 320 312 314 312 303 305 305 305 307 306 305 304 305 307 308 307 308 309 307 308 309 311 313 313 310 313 316 320 324 325 333 333 332 334 334 334 332 332 334 340 342 341 339 337 337 338 343 339 340 341 342 342 342 341 340 340 341 340 340 341 341 341 341 343 344 345 345 345 343 342 341 341 341 340 339 339 338 336 336 336 336 336 336 336 336 335 336 336 336 336 335 334 334 334 334 333
312 321 324 311 305 302 303 303 307 307 307 307 307 308 307 307 308 306 309 309 310 308 313 312 309 309 309 316 323 330 331 333 331 330 333 334 333 331 332 334 339 342 340 338 336 337 339 338 341 338 340 341 341 343 342 341 339 339 340 338 339 341 341 342 344 345 345 345 344 343 342 341 341 340 340 339 337 336 336 335 335 334 334 335 335 335 335 336 336 336 335 335 334 333 333 333 332
311 312 318 306 303 303 305 305 308 308 307 306 305 308 307 308 309 306 307 307 307 307 312 311 308 312 307 308 320 327 330 331 331 332 333 334 331 332 333 337 340 342 341 338 337 337 337 337 337 340 336 337 338 339 339 341 342 339 339 338 339 340 341 342 345 344 344 345 344 343 342 342 341 340 340 339 340 338 336 336 335 334 334 335 335 335 335 335 335 335 335 334 334 333 333 332 332
313 316 309 306 305 306 308 307 307 308 310 306 306 307 309 307 305 307 307 308 308 305 306 310 316 313 307 309 324 328 327 330 332 332 333 332 332 333 335 337 339 342 341 338 337 336 337 335 335 336 335 334 334 335 336 338 341 343 343 339 340 341 344 344 344 344 344 343 344 343 342 342 342 340 339 339 339 337 336 338 337 335 334 334 334 334 334 335 334 334 334 334 334 334 333 333 333
316 318 313 305 310 307 306 306 308 305 306 307 307 308 310 307 307 308 308 305 307 305 314 314 312 313 309 321 321 322 326 332 332 333 332 331 332 333 334 337 339 341 340 339 337 337 337 335 335 335 334 334 334 331 332 335 337 340 341 342 342 344 344 344 344 344 344 343 343 343 343 342 341 340 340 340 339 338 336 335 337 335 334 334 334 335 334 334 334 334 334 334 334 335 335 334 335
316 318 312 309 305 305 307 304 306 306 305 308 309 308 308 312 309 310 309 305 310 316 317 316 317 314 305 308 316 321 327 331 332 333 331 331 333 333 334 337 339 339 339 339 339 337 337 336 336 335 333 333 333 331 330 332 333 337 339 340 341 342 343 342 342 341 342 342 342 341 342 341 339 339 338 338 336 335 334 332 334 336 334 335 334 334 333 334 334 334 334 334 334 335 335 334 334
322 316 312 306 302 303 306 306 309 306 306 307 308 310 308 311 312 310 309 311 311 317 313 310 317 310 318 322 324 328 331 331 332 331 330 330 333 333 334 334 337 339 338 339 338 337 337 336 336 335 333 333 332 331 331 331 331 332 336 337 338 339 339 339 337 337 337 337 337 337 336 335 334 334 333 333 333 335 334 330 331 334 335 335 334 333 334 334 334 335 334 334 334 334 334 333 332
322 320 306 305 301 304 307 306 308 303 306 307 310 308 306 308 312 311 312 315 311 311 309 314 312 314 317 326 329 331 332 331 330 330 329 328 328 327 330 332 334 338 338 338 337 337 337 337 336 335 333 334 333 332 331 331 333 330 331 332 333 335 336 335 334 330 329 328 329 329 332 337 335 334 333 332 329 331 325 326 330 334 336 334 334 333 333 333 334 334 334 334 334 333 332 331 330
321 308 305 302 305 304 309 308 310 313 310 307 308 308 307 305 309 311 313 311 310 311 309 311 316 318 324 327 332 332 331 330 330 328 326 325 325 325 325 328 331 335 336 336 337 337 336 335 336 336 334 333 333 333 333 332 332 333 334 333 332 331 330 328 330 335 337 335 328 331 335 336 335 335 334 334 331 329 326 325 329 333 334 334 334 333 333 333 333 334 334 334 333 331 329 321 322
309 307 306 302 306 308 313 312 313 312 311 311 309 309 309 308 308 309 305 306 306 306 309 308 311 319 322 327 330 330 329 329 328 328 326 325 324 324 324 325 328 332 334 334 335 337 336 335 334 335 334 333 332 331 334 333 331 333 331 334 334 331 333 333 335 335 337 337 336 335 334 335 335 335 334 333 333 326 326 325 329 331 332 332 334 334 334 334 333 334 333 332 330 324 320 320 322
311 307 303 305 310 311 313 314 314 316 314 312 312 309 309 310 309 310 306 304 306 304 304 305 308 313 319 324 328 328 328 327 328 326 326 325 325 324 324 324 325 327 333 334 334 337 336 334 333 332 333 333 332 331 333 331 329 329 329 330 330 333 334 334 334 334 334 335 337 335 333 333 335 335 332 332 331 327 324 324 326 327 329 329 330 329 331 331 332 333 331 329 326 322 321 322 324
311 307 304 307 312 309 312 314 315 315 316 314 312 308 308 309 310 308 307 303 304 306 308 308 307 309 319 322 326 327 327 326 326 326 325 325 325 326 325 326 325 327 329 333 332 333 333 332 332 331 332 332 331 331 331 329 330 328 328 328 329 330 330 334 333 332 332 332 336 335 333 332 335 332 332 331 330 329 327 326 326 327 328 326 324 325 324 325 326 325 326 324 321 321 321 322 323
312 307 310 310 311 309 313 314 314 313 312 312 312 307 307 311 309 308 306 302 301 306 309 310 310 311 320 320 324 327 326 325 325 325 325 325 325 325 326 326 327 328 328 328 329 331 331 331 330 331 331 331 331 330 330 328 329 327 327 328 328 329 330 330 331 330 331 332 334 335 333 331 333 333 332 331 331 330 329 328 328 328 328 327 325 327 325 325 323 324 324 322 321 322 323 323 323
305 309 310 311 312 310 313 314 311 312 313 311 310 312 312 309 307 308 307 306 308 311 311 312 311 313 319 323 324 325 326 325 325 325 326 326 326 326 326 327 326 326 326 327 329 329 330 330 330 330 330 330 331 330 330 328 328 328 328 329 328 327 330 330 330 329 330 331 332 333 331 329 330 332 332 331 330 330 329 329 328 329 328 328 326 326 324 325 323 323 325 324 322 322 323 323 322
310 306 310 311 312 311 313 313 311 312 312 311 313 313 310 308 304 309 307 310 311 311 312 311 314 321 322 322 324 324 326 325 325 326 327 327 328 328 328 327 328 327 326 327 328 329 329 330 330 329 329 331 330 330 330 329 328 329 329 328 328 327 327 329 330 329 330 331 331 332 330 329 329 328 330 330 329 328 328 328 328 326 324 327 326 324 322 321 322 321 321 321 322 322 321 321 321
310 308 311 311 312 313 313 313 311 311 311 312 312 307 306 308 308 310 309 311 312 312 311 312 314 318 322 323 322 323 324 326 326 326 328 328 329 330 330 329 329 328 327 327 328 329 329 330 330 329 329 331 331 330 329 328 328 328 328 327 327 327 327 327 328 329 329 329 330 331 330 329 329 330 328 329 328 328 328 328 325 324 325 323 323 320 322 320 321 322 320 321 320 320 320 320 321
312 310 312 311 311 312 313 312 311 311 315 311 309 307 309 311 311 307 309 311 313 314 311 311 313 314 320 322 322 322 322 324 326 326 327 328 329 329 329 329 329 328 329 328 328 328 329 330 329 329 329 330 330 330 328 327 327 327 327 327 328 326 326 328 327 326 328 328 327 330 329 329 328 327 327 327 326 326 326 326 326 325 325 323 322 321 320 320 319 319 320 321 321 321 320 321 320
309 310 311 309 309 311 313 312 312 311 309 310 308 307 308 311 308 303 311 313 314 314 311 311 311 311 314 318 322 321 322 323 325 327 327 327 327 328 329 329 329 329 329 329 328 328 329 329 329 329 329 327 329 329 327 326 327 327 327 327 327 327 326 327 327 327 326 327 327 329 330 329 328 326 327 327 326 326 326 326 324 325 323 323 323 322 321 321 321 322 322 320 320 320 320 319 319
311 309 308 308 309 310 311 312 313 310 308 309 309 307 308 310 307 305 311 313 312 312 314 312 311 310 312 314 317 320 320 322 324 326 326 326 326 327 328 329 329 329 329 329 329 329 329 329 329 329 329 328 327 328 326 326 326 327 328 327 327 327 326 326 326 326 324 325 326 328 330 330 328 325 325 326 326 325 325 324 323 324 323 322 324 322 321 321 322 321 321 321 320 319 320 319 320
309 310 303 305 307 307 310 309 311 309 307 308 308 305 303 306 303 306 309 313 310 310 310 312 310 311 311 312 313 317 318 319 322 324 326 327 328 329 328 330 330 329 330 331 331 330 329 329 329 329 329 328 327 327 327 327 326 327 327 326 327 328 326 326 325 326 325 326 326 327 328 328 327 326 324 325 324 325 325 324 324 323 324 324 324 323 322 321 320 319 321 320 320 319 319 319 320
310 309 305 303 304 303 309 311 311 310 309 310 307 295 299 303 307 310 310 310 310 310 309 309 309 310 311 311 312 316 318 318 320 323 325 326 328 328 328 330 330 330 329 330 331 330 331 330 330 330 329 328 327 327 327 326 326 326 326 326 326 327 326 325 325 325 325 325 326 326 326 327 326 326 324 324 324 325 325 324 323 323 324 324 323 323 322 320 319 319 320 318 320 320 319 318 317
305 307 307 300 298 299 308 309 310 308 310 309 309 296 299 305 308 311 312 311 309 308 309 309 310 310 310 310 310 313 318 319 319 322 324 326 328 329 329 330 330 330 328 329 330 330 330 331 330 330 328 328 326 327 326 326 326 326 325 325 326 326 326 325 324 325 325 325 325 325 326 325 325 326 325 323 325 324 324 323 322 323 324 324 323 322 322 321 321 320 318 319 320 319 318 317 317
304 300 296 300 298 300 306 311 310 306 309 310 307 296 299 304 308 312 313 312 310 308 309 308 310 311 310 310 310 311 314 319 320 321 324 325 327 328 329 328 330 330 329 329 330 331 330 331 329 329 328 328 327 327 327 326 327 326 326 325 326 325 325 325 324 324 325 325 325 325 325 325 325 325 324 324 323 323 322 322 322 323 324 323 322 321 322 320 320 320 320 320 318 319 318 317 316
302 300 297 297 299 300 303 308 311 311 310 309 306 296 302 303 308 311 313 313 310 308 309 310 310 311 312 309 309 310 311 316 319 320 322 324 325 327 328 329 329 330 330 329 329 330 330 330 329 329 328 328 328 327 327 326 327 327 327 326 326 325 325 325 324 324 325 325 325 324 325 325 324 325 325 324 323 323 322 322 321 323 323 323 322 321 321 321 321 321 320 320 320 318 318 317 317
297 300 297 299 298 300 298 307 310 310 309 306 305 300 301 304 308 310 311 312 311 307 308 310 310 310 311 309 309 310 311 312 316 319 321 323 324 325 327 326 328 330 330 329 330 330 330 330 329 329 329 329 329 328 327 327 327 327 327 326 324 325 325 324 324 324 324 325 324 324 325 325 324 325 325 324 323 323 323 323 322 323 323 322 321 321 321 321 321 321 320 321 321 320 317 317 317
295 296 295 297 299 301 300 300 306 308 308 306 302 300 301 304 307 309 310 312 310 307 308 309 309 309 310 310 309 309 311 312 313 318 321 322 324 325 326 327 327 329 330 330 330 330 330 330 329 327 328 329 329 329 327 327 327 327 327 327 326 325 325 325 324 324 324 324 324 324 325 325 323 325 325 324 323 323 323 323 322 323 323 322 321 321 321 321 321 321 321 320 321 321 319 317 316
299 300 298 298 296 298 299 303 308 307 305 302 302 301 303 304 305 307 309 310 310 310 308 308 309 309 310 310 310 309 309 310 312 316 321 322 323 325 325 327 328 328 329 330 329 330 330 330 329 328 328 329 329 329 328 327 326 325 325 325 325 324 325 323 323 324 324 324 324 324 324 325 324 324 325 324 324 323 323 322 322 323 322 322 321 320 320 320 320 320 320 320 320 320 320 320 319
303 302 300 299 299 300 303 304 310 308 304 302 302 303 303 305 306 307 308 308 308 309 309 309 309 310 310 310 311 311 310 310 313 315 320 322 322 325 326 326 327 327 327 328 328 329 330 329 328 327 328 329 328 328 327 326 325 324 325 325 324 324 323 323 323 323 324 324 324 325 324 325 325 324 324 325 324 322 323 323 323 322 322 321 321 321 321 321 321 320 320 319 319 318 319 320 320
301 300 299 298 299 297 302 302 307 310 302 300 303 302 303 305 307 308 310 309 308 308 309 310 309 310 311 311 311 312 312 316 317 315 317 320 322 325 326 326 325 325 326 327 327 328 329 329 329 328 328 329 328 328 328 327 326 326 325 325 325 325 323 321 322 323 323 324 324 324 324 325 325 324 323 324 324 324 323 322 322 322 322 322 321 321 321 318 320 321 321 319 319 318 317 318 319
301 299 298 297 298 300 302 303 305 306 303 299 302 301 302 304 306 308 308 309 310 311 310 310 310 310 311 311 311 312 312 312 312 313 314 314 321 324 326 326 326 327 326 326 327 327 328 329 329 329 328 328 328 328 328 327 327 327 326 326 326 325 325 324 323 323 323 323 324 324 324 325 326 325 324 323 324 324 323 322 322 323 323 322 321 320 320 320 321 320 320 319 317 318 318 318 319
299 299 296 295 299 296 292 301 304 305 304 300 301 300 302 305 306 307 309 309 310 311 312 312 312 310 310 311 312 312 312 312 312 312 313 314 315 324 324 325 326 326 326 326 327 326 328 328 328 329 328 328 328 328 326 328 328 328 328 327 327 326 324 323 323 323 323 323 323 324 325 325 326 325 325 324 324 324 324 323 323 323 323 322 322 320 320 320 320 320 320 319 318 316 316 317 319
300 299 298 297 297 298 297 298 302 304 305 305 302 299 299 302 301 303 307 309 309 310 311 312 312 313 312 312 312 313 313 313 313 314 314 314 314 317 323 324 325 325 325 326 326 327 328 328 329 329 329 328 328 328 327 328 327 326 327 325 325 325 322 323 322 322 323 322 323 323 324 325 326 326 326 325 323 324 324 324 323 323 322 322 322 321 320 320 320 321 321 320 319 317 315 315 317
298 301 300 299 299 298 298 300 298 296 295 301 300 291 292 299 300 301 305 306 306 309 309 310 310 311 312 312 311 312 314 314 314 315 315 315 315 314 317 321 322 323 324 325 326 327 327 327 328 329 329 329 328 328 328 328 326 326 325 324 322 322 322 321 321 321 322 322 322 324 324 325 325 325 326 325 324 323 324 324 323 323 322 322 322 322 321 320 320 320 320 321 319 319 317 313 313
295 296 302 301 300 299 298 297 297 290 288 297 303 291 287 297 298 301 303 304 305 307 307 309 310 311 312 312 313 313 313 314 314 315 315 315 315 314 314 317 320 321 323 325 326 326 327 327 328 328 328 328 328 328 328 327 327 326 325 324 324 323 322 323 324 324 324 324 324 323 324 325 325 325 325 325 325 324 324 324 324 323 323 323 321 321 321 320 320 320 321 320 320 319 318 315 314
293 301 301 301 299 297 297 297 296 293 298 299 301 298 290 290 296 302 303 302 303 305 307 308 309 310 311 312 313 313 313 314 314 315 315 316 316 316 314 315 318 320 322 323 324 326 326 326 327 327 328 327 328 328 328 327 326 326 325 325 324 323 323 323 324 324 325 324 324 324 324 324 325 325 325 325 325 325 323 324 324 324 323 323 322 322 321 321 321 321 321 321 320 319 319 317 314
297 302 303 300 299 298 299 297 295 295 293 289 294 298 290 289 296 302 303 300 301 302 304 306 309 310 311 312 313 312 313 314 314 314 315 315 316 316 317 316 316 318 320 322 323 324 326 327 326 327 328 327 328 328 327 327 326 326 326 325 324 323 324 323 323 323 323 323 323 324 324 324 324 325 325 324 324 325 322 323 324 324 324 324 322 323 322 322 321 320 320 320 320 319 319 318 316
301 302 303 302 302 301 300 295 294 293 291 286 291 296 288 289 294 296 300 299 299 301 304 306 308 309 310 311 312 313 313 313 314 315 315 315 316 317 318 319 318 318 319 321 323 324 325 326 325 326 327 328 328 328 327 327 326 325 325 325 324 323 322 322 322 322 322 323 323 323 324 324 324 324 324 324 324 324 324 323 323 323 324 324 321 323 322 322 322 321 321 321 321 320 320 318 318
305 301 299 298 297 296 297 294 292 288 284 287 293 295 293 286 292 294 295 297 300 302 304 306 307 309 310 311 312 313 313 313 313 314 314 315 316 317 317 317 317 318 318 319 320 322 324 324 325 325 326 328 327 328 327 326 326 325 325 325 325 324 323 322 321 321 322 322 322 323 323 323 324 324 324 323 324 324 324 323 323 324 324 323 322 323 323 322 322 322 322 321 320 320 320 319 317
301 296 294 293 290 292 289 287 289 283 283 290 294 294 295 285 289 296 300 303 303 303 303 305 306 308 309 310 312 312 313 313 313 313 313 314 314 314 315 315 316 317 317 317 318 320 322 323 324 324 325 326 327 327 327 327 326 325 325 325 325 325 324 323 321 321 322 322 322 322 323 323 323 323 323 323 323 324 323 323 323 323 323 324 324 324 324 324 323 322 322 322 321 321 321 319 318
297 296 294 286 281 283 281 286 282 283 283 289 294 295 291 290 294 297 300 302 304 304 305 306 307 308 309 310 311 312 312 312 313 313 313 313 314 314 314 315 315 315 315 315 317 319 321 322 323 323 323 326 327 327 326 326 326 325 325 325 325 325 324 323 322 322 322 322 322 322 323 322 322 322 322 322 322 323 323 323 323 323 323 323 324 324 324 324 323 323 322 321 321 320 320 319 318
295 292 290 285 281 280 278 281 283 284 288 292 292 295 289 294 297 301 301 303 305 305 306 307 307 308 309 309 309 310 311 312 312 313 313 314 314 315 315 315 315 315 315 316 316 318 320 322 322 323 323 325 326 326 326 326 326 326 325 325 325 324 324 324 323 322 322 323 324 323 323 323 322 322 322 322 323 323 323 323 323 323 323 323 323 324 324 324 323 323 322 321 321 321 321 320 319
294 297 293 288 286 282 278 280 278 279 283 287 292 287 284 288 292 302 303 305 305 306 307 307 306 307 307 308 308 309 309 310 312 313 313 314 314 314 315 315 314 314 315 316 316 317 319 319 321 321 322 323 324 325 326 326 326 326 326 325 324 324 324 324 324 324 323 323 324 324 324 324 323 323 323 323 323 322 323 323 323 323 323 323 322 323 323 323 323 322 321 321 321 321 320 320 320
297 297 296 290 287 290 284 285 283 282 282 283 286 285 290 294 301 303 304 303 304 305 306 306 306 307 307 307 307 307 308 309 310 310 312 312 314 314 315 315 315 315 315 315 315 316 316 317 318 320 321 321 323 324 325 326 326 326 325 325 324 324 322 324 323 323 324 324 324 324 324 325 325 324 324 323 323 323 323 323 322 323 323 323 323 323 323 323 323 322 321 321 320 321 320 319 319
293 294 288 291 298 293 285 286 285 285 285 282 289 289 294 300 301 302 303 303 303 304 305 305 305 306 306 307 308 307 309 309 310 311 313 313 312 313 314 314 315 315 315 315 315 316 315 315 315 316 318 319 321 322 324 325 326 325 325 325 325 324 323 323 323 324 324 325 324 325 325 325 325 324 324 324 323 323 323 323 322 322 323 323 323 322 323 323 323 322 321 320 320 319 319 319 319
294 288 292 297 299 294 287 281 282 282 279 281 287 285 288 288 286 300 300 300 301 303 304 305 306 306 306 307 308 309 309 311 312 312 312 313 313 313 313 314 314 315 315 315 315 315 315 315 315 314 315 315 318 320 322 324 324 325 325 325 325 325 324 324 324 324 324 324 324 324 324 324 324 324 324 324 324 323 323 319 322 322 323 323 323 323 322 323 322 322 322 321 321 320 319 319 319
295 292 300 291 283 285 288 285 279 278 278 280 284 286 286 291 291 296 295 298 300 302 304 304 305 305 306 307 308 309 310 311 311 310 310 311 312 313 313 313 313 313 313 314 314 314 314 313 313 314 314 314 316 318 320 322 324 325 325 325 325 325 325 325 324 324 324 324 324 324 324 325 324 324 323 323 323 323 323 322 322 322 322 322 322 322 322 322 322 321 321 321 322 321 320 320 321
299 299 295 296 293 288 286 286 286 285 279 281 281 285 283 292 293 297 298 300 301 302 302 303 305 306 307 307 308 309 309 310 310 310 310 312 312 312 312 312 312 311 311 311 311 312 312 313 313 312 313 312 313 315 317 319 322 323 324 324 324 325 325 325 324 323 323 324 324 324 324 324 324 323 323 323 323 323 322 322 322 322 321 322 322 322 322 322 322 322 322 322 322 322 321 320 320
292 293 290 291 290 293 291 289 286 283 281 281 280 280 285 294 299 299 299 302 303 303 303 304 305 306 307 308 309 309 309 309 310 310 311 311 311 310 309 309 309 308 307 307 308 310 310 311 311 312 312 311 312 313 315 317 319 322 322 323 324 324 324 324 324 324 323 323 324 323 324 324 323 323 323 323 323 323 322 322 322 321 321 321 321 322 322 322 321 321 322 322 321 321 320 320 319
293 292 290 292 289 285 283 280 289 287 284 280 281 279 287 295 302 301 302 303 304 305 304 305 305 306 307 308 308 308 309 309 310 309 309 309 307 307 307 306 304 305 305 306 308 308 307 308 309 308 308 309 310 311 313 315 317 319 320 321 322 323 324 324 323 323 322 323 323 323 323 322 323 323 323 323 323 323 322 322 321 321 321 321 321 321 321 321 320 320 321 322 321 320 319 319 319
Wind_Speed
10 10 9 9 7 4 5 2 2 1 2 6 0 3 2 3 3 2 5 3 4 4 4 2 2 5 5 3 5 12 10 7 4 0 1 2 3 6 3 10 13 13 11 9 8 6 5 8 11 11 12 11 11 11 12 12 11 9 9 9 8 8 9 8 8 11 12 13 14 14 14 13 12 12 12 13 12 12 12 12 13 13 14 15 14 13 13 13 14 14 14 15 15 15 14 14 14
8 9 9 8 5 2 2 1 2 3 4 3 5 5 3 2 2 2 4 6 5 4 2 3 3 2 3 4 2 7 11 9 6 5 3 4 3 2 4 11 12 13 10 10 9 7 6 6 9 10 11 12 12 12 11 11 10 9 9 8 8 8 9 9 9 12 12 12 13 14 13 13 13 12 12 12 13 12 11 11 12 13 14 13 14 14 13 13 13 14 14 14 14 14 13 13 13
8 7 8 6 6 4 3 1 2 4 4 2 3 3 3 3 2 5 11 8 7 4 4 5 3 0 2 2 0 3 4 9 10 8 5 5 9 4 6 10 10 12 12 9 9 8 6 6 8 10 11 11 10 11 11 11 11 9 8 8 8 7 9 10 9 10 12 12 12 13 13 13 12 12 12 12 12 12 11 10 11 12 12 13 13 12 12 12 13 13 13 13 13 13 13 12 12
7 5 4 4 4 3 2 1 3 4 4 2 4 1 3 2 6 9 7 5 3 3 1 2 2 2 3 1 4 8 5 5 7 9 6 6 4 7 5 11 11 10 9 7 9 9 7 8 8 9 10 11 10 9 11 11 10 10 8 7 7 6 9 10 11 12 11 12 11 12 12 12 12 13 12 11 11 11 10 10 10 11 12 12 12 12 12 12 12 12 12 13 13 13 12 11 12
6 5 5 2 2 2 2 2 3 2 3 3 4 2 2 4 9 6 4 3 2 1 2 3 0 0 2 0 2 1 2 6 8 6 6 4 9 6 7 10 10 10 9 8 9 9 9 11 8 9 10 10 10 10 9 11 10 10 8 8 8 7 8 11 12 11 11 11 10 11 12 12 12 11 12 11 10 11 10 10 10 11 11 12 12 11 12 12 12 12 11 11 12 12 11 11 11
8 4 2 2 2 1 1 3 3 5 1 2 3 2 2 4 8 6 3 3 4 2 4 0 2 3 2 4 3 3 2 1 6 6 7 7 13 9 9 9 10 9 9 9 8 8 8 12 10 9 9 10 10 10 10 10 10 9 8 8 9 9 8 7 9 9 10 10 10 10 11 12 11 11 11 10 10 10 10 10 10 10 10 10 11 11 12 11 11 11 11 11 11 11 10 11 11
4 5 2 2 3 1 2 4 6 1 3 3 3 4 4 4 8 5 5 3 1 2 0 2 2 2 2 2 7 4 5 5 5 6 6 9 9 9 9 9 9 10 10 8 8 9 10 12 11 9 8 8 10 9 11 11 10 10 8 9 9 8 6 7 9 9 9 10 10 10 11 11 11 11 10 10 10 9 10 10 10 10 9 9 11 11 11 11 11 10 10 10 10 9 9 9 10
4 1 3 3 3 1 4 5 7 3 2 4 3 3 3 5 4 5 5 3 4 2 3 1 2 3 3 6 4 2 6 7 9 11 12 9 8 8 7 10 9 11 11 9 8 8 11 12 11 9 8 9 8 7 9 11 10 9 6 9 9 8 6 8 7 9 9 10 11 10 11 10 10 10 10 10 10 10 10 10 10 9 10 9 8 11 11 10 10 10 9 9 9 9 9 8 8
3 2 2 3 4 2 4 5 7 0 4 3 4 6 5 3 2 4 7 1 6 2 6 3 2 1 2 2 6 4 3 7 10 11 11 10 10 9 6 8 10 10 9 9 9 8 8 12 11 9 7 8 8 8 8 8 9 8 7 8 8 7 6 7 9 8 9 11 11 11 11 10 10 10 10 10 10 10 9 9 9 9 9 9 9 9 10 10 9 9 9 8 8 8 8 8 8
4 2 1 1 3 5 4 5 4 1 3 4 5 5 2 1 2 1 6 4 2 1 3 3 3 4 3 7 5 3 3 8 10 9 9 10 10 8 6 7 11 11 10 9 9 8 6 12 12 9 7 6 7 8 9 7 7 7 6 4 9 7 7 6 7 7 8 10 11 11 10 10 10 10 10 10 10 9 8 8 9 9 8 8 9 8 8 9 9 8 8 7 7 7 7 8 7
3 2 2 2 3 5 5 5 2 1 5 3 2 6 3 1 2 3 2 3 6 2 5 5 1 3 3 6 3 3 8 9 9 10 9 9 8 7 7 8 11 10 10 8 8 7 7 7 12 12 7 6 7 7 6 8 7 7 6 5 5 8 7 7 8 8 8 8 10 10 11 10 10 10 10 10 9 9 8 7 7 8 8 8 8 8 8 8 8 8 7 7 7 6 7 7 7
3 4 2 2 4 4 5 5 6 1 4 4 3 6 3 3 2 2 2 3 5 2 4 4 1 1 3 2 2 4 8 8 8 9 9 9 6 5 6 8 10 12 9 8 7 8 6 6 6 9 11 8 7 7 7 5 7 7 6 6 7 4 7 7 7 8 8 10 9 9 11 11 10 10 10 9 8 8 8 8 6 7 8 8 8 8 8 7 7 7 7 6 6 6 6 6 6
3 3 4 4 3 4 6 8 6 4 1 4 6 3 5 4 3 2 3 1 7 3 3 7 3 1 1 1 3 7 9 8 9 9 9 7 6 5 4 9 9 11 10 9 8 8 7 6 6 6 6 10 8 8 6 6 5 5 5 6 7 6 2 7 7 7 8 9 9 7 9 9 10 10 10 9 8 9 8 6 6 6 7 7 8 7 7 7 7 6 6 6 5 5 5 5 5
3 2 3 4 4 6 6 4 5 4 2 6 5 6 4 3 3 2 1 2 4 4 2 7 1 2 2 6 4 6 7 10 11 9 8 7 6 5 5 8 8 10 9 9 9 9 8 7 6 5 6 5 5 7 8 7 5 5 7 7 7 7 5 6 6 6 8 8 8 6 6 7 10 10 9 8 8 8 7 6 6 6 7 8 8 7 7 7 6 5 5 5 5 4 4 4 4
2 3 3 3 4 4 5 4 1 4 3 2 1 4 4 1 3 1 1 3 5 5 3 5 1 0 2 2 5 6 8 11 11 9 7 7 6 5 6 7 7 9 8 8 8 9 9 8 9 7 5 4 5 5 4 5 7 6 8 8 7 8 8 8 6 7 8 7 8 6 5 6 9 9 8 8 9 9 8 7 6 5 7 7 7 7 7 7 6 6 5 4 4 4 4 5 4
2 2 2 3 4 4 4 4 2 4 1 3 3 3 3 4 3 1 2 4 2 1 3 2 1 0 4 9 5 10 12 11 8 8 7 7 6 5 6 7 6 6 7 7 8 8 9 9 8 8 8 6 6 5 5 4 5 7 8 8 8 8 9 8 8 8 8 8 7 8 8 7 7 7 9 8 9 9 9 6 5 4 7 7 6 7 7 7 7 6 6 5 4 5 5 5 5
1 1 2 3 7 5 3 4 2 2 4 3 4 5 3 3 1 1 1 1 3 2 1 4 2 1 4 6 11 10 10 9 7 7 7 5 5 5 6 6 6 5 5 6 6 7 8 8 10 8 8 8 9 7 7 6 5 7 6 8 9 9 8 8 8 8 8 7 7 7 8 6 5 5 7 5 9 6 7 8 5 5 7 7 6 4 6 6 7 6 6 5 5 5 5 5 4
2 3 3 6 5 6 4 7 4 3 1 5 3 3 2 4 2 1 1 1 2 4 2 4 4 5 10 7 10 11 10 9 7 8 7 6 4 5 5 6 7 7 6 6 6 7 7 7 11 10 8 8 8 7 6 6 6 6 5 5 4 6 7 7 7 5 6 5 8 7 4 5 5 5 5 7 5 6 7 8 6 7 7 5 5 6 4 6 6 6 5 4 4 4 4 3 3
4 2 4 7 6 6 6 5 7 4 1 6 7 3 1 1 8 3 2 3 4 3 3 3 5 8 6 8 12 12 11 9 9 7 9 9 7 8 7 6 7 8 8 7 7 8 7 7 7 11 10 9 8 6 6 7 8 5 5 6 5 6 6 6 5 6 5 6 5 5 5 5 4 6 5 6 6 9 8 8 9 9 8 7 6 6 4 2 4 7 3 3 2 1 2 3 3
6 4 5 8 7 8 9 6 6 5 3 4 2 4 1 2 5 3 2 3 7 7 4 4 6 8 9 9 11 11 11 11 9 8 9 8 7 8 8 7 8 8 9 8 7 8 9 8 8 8 11 10 7 6 6 7 7 6 6 5 6 6 6 6 5 5 6 6 7 6 6 5 5 5 8 11 9 6 6 8 10 10 9 8 7 3 2 3 4 5 3 3 1 2 4 5 5
4 7 7 6 7 9 10 12 10 6 3 3 2 4 1 2 2 3 2 3 4 6 6 8 10 8 12 12 11 11 11 11 10 9 9 8 6 6 7 7 7 7 7 8 6 7 8 8 7 7 7 8 8 7 7 6 8 7 6 6 6 6 6 6 6 6 6 5 8 6 6 5 5 6 7 6 6 7 6 5 6 6 6 4 7 4 4 4 3 4 3 4 3 4 5 6 6
4 8 9 11 10 9 9 4 8 8 8 2 1 2 3 1 4 4 4 4 3 1 4 9 8 9 14 13 12 11 12 12 12 11 11 10 10 8 6 5 6 5 6 8 8 8 7 7 6 6 6 6 7 7 7 6 8 8 7 7 7 7 7 6 6 6 6 6 6 7 6 5 6 6 6 6 7 7 7 6 6 6 6 6 5 5 6 6 5 5 5 5 5 6 6 7 5
8 6 8 9 10 11 7 6 4 4 2 1 3 3 2 3 3 4 4 6 5 2 5 5 2 8 16 15 14 12 12 12 13 13 12 11 10 9 8 7 7 8 6 6 7 7 7 6 5 5 5 5 6 5 6 6 6 6 7 7 6 7 7 7 6 6 6 6 5 7 6 5 6 7 7 6 6 6 7 7 7 6 7 6 7 6 6 7 7 6 7 7 7 7 7 6 4
9 7 7 12 10 11 8 9 6 1 2 4 3 5 3 1 5 3 6 6 8 1 3 4 5 9 13 13 13 14 14 14 13 13 13 13 13 13 10 9 7 5 4 5 7 6 7 8 7 5 5 5 4 5 5 6 6 6 6 7 7 7 7 7 7 6 6 7 6 6 5 5 6 5 6 6 5 4 6 6 7 7 7 8 7 7 5 4 4 4 3 4 6 5 4 3 3
11 11 8 8 8 8 10 10 4 5 3 3 5 3 3 3 4 3 5 5 8 4 3 4 4 5 9 9 9 10 11 11 11 11 8 7 9 9 7 6 7 7 7 7 6 7 7 7 8 8 6 7 6 6 6 5 6 6 5 6 6 6 6 7 7 6 6 6 6 6 6 6 6 6 6 6 6 4 4 4 4 4 4 4 4 6 5 3 5 5 3 4 4 4 3 3 4
10 8 7 8 11 10 11 5 6 1 1 3 6 7 6 6 5 7 6 6 4 1 4 4 4 5 7 9 10 9 10 12 10 10 12 9 8 10 10 8 7 10 10 8 7 7 8 8 9 9 8 8 7 7 6 5 6 7 5 5 6 5 6 6 5 6 6 6 6 6 6 6 5 6 6 6 6 5 4 4 5 4 4 4 4 4 4 3 3 3 4 5 4 4 5 6 6
6 8 12 12 13 13 11 12 8 5 4 4 8 8 7 6 5 7 6 7 8 8 5 5 6 7 7 7 9 8 10 11 12 11 8 7 8 10 10 10 9 9 9 10 9 7 7 9 9 9 8 7 7 7 6 5 5 6 6 5 5 6 5 5 5 6 7 6 6 6 5 5 5 4 6 6 6 6 6 5 5 5 5 5 4 5 4 5 4 4 6 6 5 6 6 6 6
7 9 9 12 12 12 10 12 13 3 4 6 6 8 6 6 4 12 4 3 1 7 10 8 7 5 6 7 8 8 8 8 9 9 12 11 10 10 10 11 11 8 9 10 9 7 8 11 10 10 10 8 8 8 6 6 6 5 6 6 5 5 5 5 5 5 5 6 5 6 7 6 5 5 5 7 7 6 6 6 5 5 6 4 5 4 4 4 5 5 4 4 3 3 5 6 7
4 8 9 10 11 12 10 10 11 5 5 3 3 8 11 7 12 11 5 6 3 4 4 7 8 7 6 7 7 7 8 8 8 9 11 11 10 9 12 12 11 10 7 9 10 10 11 11 11 11 10 8 8 8 7 5 5 5 6 6 6 5 6 6 6 5 5 5 4 6 7 7 7 6 4 6 7 7 7 6 6 6 5 6 4 4 5 4 4 4 4 3 2 3 4 5 4
1 5 6 11 11 14 12 9 10 10 5 5 4 9 9 11 14 11 7 9 7 7 7 6 5 8 7 6 6 7 7 7 9 11 10 10 10 10 11 10 11 11 9 7 9 11 10 8 8 9 11 11 11 9 7 6 6 5 5 6 6 6 6 6 6 6 6 6 5 5 7 8 7 7 5 4 6 7 8 7 7 6 6 4 4 5 6 6 5 5 6 4 4 4 6 6 5
3 2 2 5 7 13 7 7 7 13 6 9 7 13 8 5 9 13 12 10 12 14 13 11 9 7 8 7 7 8 9 10 11 11 10 10 11 10 11 9 10 10 7 8 12 12 11 10 9 9 11 11 11 11 9 8 6 5 5 5 6 6 6 6 6 6 6 6 6 6 6 7 7 8 7 5 6 6 7 7 7 6 6 5 6 6 6 7 5 5 6 6 5 6 6 7 7
2 1 7 7 10 12 5 7 10 14 5 11 8 12 10 8 8 5 4 10 14 13 12 9 9 9 7 8 8 8 9 10 11 11 11 11 11 10 11 12 12 11 11 10 10 10 12 11 11 10 12 12 11 12 9 7 7 7 6 5 5 5 6 6 6 6 6 6 6 6 6 6 7 6 6 6 6 6 6 7 7 7 7 7 7 6 6 7 6 6 6 6 6 7 7 8 7
4 9 7 8 9 13 9 12 10 10 8 11 15 6 3 6 8 11 14 14 9 14 10 10 11 11 10 7 8 8 7 8 9 11 11 11 10 10 11 12 12 14 12 11 11 11 11 12 13 12 14 14 12 12 10 7 7 8 8 7 5 5 6 6 6 6 7 6 7 7 7 8 7 7 7 7 7 7 7 6 6 8 8 7 8 7 7 7 7 7 7 7 7 7 8 8 7
8 7 11 8 12 7 9 7 10 8 10 8 10 11 10 6 11 9 6 6 9 9 10 10 10 8 9 7 7 8 9 8 10 11 11 11 10 12 11 12 12 13 12 12 12 13 13 12 12 13 11 13 11 12 12 10 8 7 7 7 6 6 6 6 6 7 7 7 6 7 7 9 9 10 9 7 8 6 6 7 6 7 8 7 7 8 7 7 7 8 8 8 8 7 7 7 7
12 9 8 9 9 13 10 5 2 5 12 16 9 14 11 9 10 11 14 14 6 6 8 7 6 6 7 6 7 8 9 10 10 9 11 11 11 11 10 10 11 12 11 13 12 12 10 10 10 11 11 12 12 11 11 10 9 7 6 7 8 9 6 7 7 7 7 7 7 6 7 8 9 10 10 8 8 8 6 7 7 7 7 8 7 7 7 8 8 8 8 7 8 9 8 6 6
11 10 11 9 9 8 11 9 8 1 8 7 11 13 10 9 11 12 11 10 12 9 7 6 5 5 5 6 6 6 7 10 9 9 11 10 9 10 10 9 10 10 11 12 12 12 12 10 9 10 11 12 11 10 10 9 8 9 8 7 8 10 9 8 8 7 7 8 8 8 7 7 8 10 11 10 9 9 8 7 7 7 7 7 8 9 8 8 9 8 8 7 7 7 7 7 6
8 10 9 9 9 9 5 9 4 3 3 12 9 10 10 11 9 10 10 10 12 14 11 10 9 7 6 6 6 6 7 7 6 9 11 11 10 10 10 9 9 10 10 12 12 12 13 13 12 13 12 12 12 11 11 11 11 10 8 10 10 9 10 9 8 8 8 8 8 9 9 8 8 10 11 10 10 10 9 7 7 7 7 7 8 10 8 7 7 7 7 7 7 7 7 7 7
14 10 10 11 11 10 7 5 6 2 5 4 6 10 11 10 10 11 11 11 13 12 13 14 11 10 10 10 11 9 7 3 4 6 7 8 9 10 9 8 8 11 11 12 14 15 14 15 15 14 11 11 12 13 13 13 12 13 13 13 11 10 10 11 10 10 10 8 8 9 9 9 9 10 11 11 10 10 9 9 9 8 8 8 8 6 7 7 8 8 7 7 7 8 6 5 6
14 11 8 10 11 6 6 6 3 3 2 6 5 11 13 12 13 12 11 13 12 11 10 10 11 13 11 11 11 11 9 6 5 6 6 7 8 10 10 10 11 14 14 14 15 14 14 14 14 13 13 14 13 13 11 13 13 12 12 11 12 9 8 9 9 9 9 9 9 9 9 9 10 9 10 11 11 11 10 9 9 8 9 8 8 8 8 9 9 9 9 9 7 6 6 4 6
10 10 11 12 6 7 5 7 3 4 5 3 3 10 12 11 12 16 17 18 12 10 12 15 12 10 13 13 11 10 10 9 8 8 9 9 8 10 10 11 12 10 10 11 12 14 13 13 13 14 14 14 13 14 14 13 12 12 11 9 10 9 7 6 8 8 9 10 11 11 11 10 10 10 11 12 11 11 11 11 9 8 9 9 9 9 9 10 9 9 9 10 7 7 7 8 8
12 14 12 11 12 10 8 2 5 3 5 6 7 12 13 11 12 10 10 13 15 15 14 13 12 11 7 8 10 11 12 11 11 10 10 10 11 12 13 14 12 12 13 13 14 14 11 16 16 16 15 15 14 15 16 12 9 8 8 4 5 6 3 6 7 8 10 10 10 11 13 12 12 12 12 13 12 12 11 10 10 10 9 9 9 9 10 11 10 10 10 9 10 10 8 6 7
12 14 15 12 10 11 9 6 6 4 7 8 4 7 15 9 13 14 11 11 17 15 16 17 13 11 12 11 10 10 10 9 11 12 13 13 13 12 13 13 12 12 14 14 15 16 14 14 16 15 13 13 14 15 15 12 11 12 11 11 10 11 11 11 13 15 13 13 15 12 10 13 13 12 12 12 12 11 11 11 11 10 10 9 10 10 9 8 10 11 11 11 11 10 8 6 6
12 12 12 15 14 9 6 5 3 7 10 2 10 11 16 6 9 11 11 14 18 14 16 17 14 15 15 14 13 12 12 11 11 11 10 11 12 12 14 15 15 16 16 15 14 15 16 16 16 17 15 14 14 14 16 13 12 12 16 16 14 15 16 13 13 12 12 12 9 10 12 11 13 13 12 12 12 12 11 11 11 11 11 10 9 9 10 11 10 11 10 10 11 9 8 9 9
13 6 11 13 14 14 11 9 8 6 3 4 2 4 11 13 11 8 6 9 11 15 16 14 13 14 15 15 15 14 14 14 14 16 17 16 14 13 14 17 16 17 17 15 14 14 17 17 16 16 14 14 13 13 15 16 15 14 15 15 14 14 14 15 15 13 11 9 11 12 10 11 12 13 13 12 12 12 12 12 12 11 11 11 10 11 11 10 9 9 10 11 9 9 10 11 9
4 2 4 9 10 9 7 8 7 6 5 12 10 8 10 15 13 7 9 13 14 14 10 10 14 15 14 15 15 14 14 15 16 15 16 16 17 16 14 14 16 17 16 14 15 16 16 16 15 15 15 14 13 16 16 17 16 16 15 14 14 13 13 11 8 9 10 11 12 11 11 12 12 13 13 13 13 13 12 13 13 12 12 12 10 10 10 11 12 11 11 11 11 10 10 10 9
4 7 4 1 2 2 1 3 5 5 6 14 13 8 10 19 17 7 9 16 18 15 14 16 14 9 11 14 14 14 14 14 14 16 14 13 14 15 16 17 15 16 16 15 16 14 13 13 14 15 16 14 14 16 17 18 19 15 15 15 17 15 12 10 8 10 11 10 12 12 12 11 11 12 13 13 13 14 13 12 13 14 13 12 11 11 10 11 12 12 12 12 11 12 9 9 11
6 4 4 3 4 2 3 1 0 2 11 15 15 12 13 18 19 10 11 14 13 12 12 11 9 12 11 9 12 14 14 14 12 11 12 13 13 15 15 16 17 14 12 14 15 15 14 14 15 17 18 15 15 17 18 19 18 17 16 17 19 18 15 13 11 11 11 11 12 12 12 12 11 12 12 12 14 13 13 13 13 13 12 11 11 12 12 11 11 12 11 10 12 13 10 11 10
10 4 5 4 1 3 2 1 1 8 12 12 16 15 17 18 22 10 13 12 13 15 14 10 12 13 13 10 10 10 11 11 11 10 10 12 12 12 12 14 15 15 13 11 12 13 14 15 15 17 17 17 15 16 17 17 16 18 18 18 18 18 15 13 15 15 14 15 14 13 11 10 11 11 11 11 13 14 13 13 13 13 13 13 13 12 11 11 9 9 10 10 10 11 11 11 10
7 7 6 8 2 3 6 4 10 13 13 8 10 15 13 23 25 7 6 11 15 17 13 13 11 12 13 12 13 12 10 9 10 11 11 10 11 13 13 14 13 11 11 10 10 10 11 12 14 16 17 17 16 16 17 18 17 17 18 18 17 15 14 15 15 14 13 13 12 12 11 12 11 11 12 14 14 16 14 13 13 14 14 14 13 11 11 12 10 9 10 11 11 11 11 12 11
9 10 10 9 9 8 11 10 5 8 12 11 13 9 15 8 18 16 23 23 15 11 16 17 17 14 12 10 9 9 10 10 11 10 11 12 13 12 12 12 11 9 9 11 11 11 10 11 13 15 18 17 15 15 16 17 18 18 17 17 16 14 15 15 14 14 13 12 11 13 13 13 13 15 14 16 15 15 13 14 13 14 13 12 12 13 12 11 11 11 10 11 12 11 10 12 12
17 13 15 13 11 6 12 8 13 13 12 10 10 4 4 8 12 7 20 21 20 20 17 10 9 9 8 8 8 8 8 8 9 10 12 13 13 11 9 8 8 8 9 9 9 11 12 12 13 16 16 15 15 16 14 16 16 16 15 15 15 13 14 14 14 13 13 12 11 12 13 12 13 13 14 13 11 14 15 14 14 14 13 13 13 13 11 11 12 11 10 11 10 9 10 10 10
9 7 4 8 14 3 11 6 5 3 1 3 6 7 5 9 15 10 6 6 11 17 21 20 20 15 10 8 8 8 7 7 7 7 8 10 9 8 8 8 9 9 9 9 10 11 12 13 14 16 17 15 15 15 15 16 16 14 15 16 17 16 13 12 11 11 11 12 13 13 14 13 13 12 11 11 13 14 15 15 14 14 13 13 13 14 13 11 11 12 10 9 11 7 9 11 10
8 7 10 12 9 13 3 7 4 4 7 10 2 7 5 8 17 12 13 17 11 7 15 19 21 21 19 17 13 9 9 8 10 9 8 7 6 6 7 7 8 9 9 10 12 12 13 13 12 13 14 12 13 15 16 14 14 13 15 16 15 14 15 15 14 14 14 13 12 12 12 12 11 11 10 11 12 13 13 14 14 14 13 13 13 13 13 12 11 11 11 10 11 8 8 10 9
4 11 10 2 9 7 3 9 2 7 11 9 5 14 7 3 12 8 20 13 6 11 11 14 17 15 17 16 13 13 11 12 14 12 10 9 7 7 7 7 8 10 10 10 11 9 10 11 12 14 13 14 14 14 14 13 14 15 14 15 15 15 15 15 14 13 12 11 11 11 11 10 12 12 11 10 11 12 12 14 13 13 13 13 14 13 12 12 11 10 11 11 10 8 8 8 8
10 3 6 10 1 7 5 0 11 9 11 8 13 17 15 9 16 6 2 10 11 11 11 12 14 14 15 14 14 13 12 12 12 9 8 7 8 10 11 11 10 9 8 8 8 8 7 8 10 12 14 14 14 12 11 12 13 11 11 13 15 14 13 13 12 12 11 12 14 13 13 13 10 10 10 10 11 12 12 12 13 13 12 13 12 12 12 11 11 11 10 10 11 10 10 10 9
10 4 8 6 3 9 9 11 4 6 11 5 17 13 13 10 16 18 16 16 10 11 10 14 15 14 13 13 12 12 12 14 10 7 8 9 11 11 10 9 8 8 7 7 7 6 8 9 9 10 10 9 9 11 12 12 12 11 11 10 11 12 12 12 12 12 12 13 14 13 13 11 12 9 10 11 11 12 12 12 12 12 12 12 12 12 11 12 11 11 11 10 10 11 12 11 10
12 10 9 5 6 1 5 5 11 8 8 13 10 15 5 10 13 19 19 20 15 10 12 11 12 12 13 12 14 15 14 10 11 11 11 12 11 7 6 5 6 6 5 5 5 7 8 7 8 9 12 11 12 13 12 12 11 12 12 13 13 12 13 12 12 13 14 13 12 12 12 11 7 10 10 11 11 12 12 12 12 12 12 12 12 12 11 11 12 12 11 11 11 12 13 12 10
14 14 15 15 14 7 12 10 5 9 10 7 8 18 6 3 8 12 16 19 15 16 13 13 13 13 12 14 17 14 12 12 11 11 10 9 6 5 4 2 1 3 3 5 7 6 6 6 6 5 5 7 9 10 11 11 10 11 12 13 12 10 11 11 12 12 13 13 12 11 10 8 11 11 10 12 12 10 10 11 11 12 12 12 12 13 12 11 12 12 12 10 11 13 12 12 11
Wind_Direction
312 314 314 304 285 282 305 244 291 199 225 249 47 56 83 43 32 152 93 171 165 36 58 85 21 39 25 32 53 73 37 44 358 11 133 147 204 185 125 123 123 129 126 125 126 138 131 133 136 132 132 130 124 119 117 116 113 112 110 117 120 116 112 114 110 111 111 109 109 106 106 102 100 100 96 92 92 91 90 92 92 92 93 88 85 84 86 87 84 84 84 84 84 83 81 81 81
302 313 305 298 275 52 275 340 250 275 220 248 61 101 109 111 212 99 160 65 43 90 109 65 76 25 18 27 359 119 52 48 58 81 70 134 129 147 112 127 132 128 122 124 140 140 115 107 113 129 127 127 134 128 124 121 118 116 120 122 125 126 124 119 116 115 115 113 111 110 108 106 102 99 99 95 93 93 92 91 92 93 92 96 91 86 85 85 85 85 87 89 88 87 85 84 81
304 315 312 311 294 179 278 250 279 288 311 63 63 93 175 122 112 65 60 75 78 81 58 71 52 101 248 241 1 49 86 100 88 94 108 135 126 194 166 139 125 122 126 137 145 131 122 107 113 124 124 128 122 127 128 127 125 124 126 126 128 136 128 122 123 118 117 118 117 114 111 110 110 106 102 103 101 96 92 99 104 102 98 92 91 93 87 84 88 91 89 90 90 89 88 87 84
282 260 272 322 317 312 248 230 244 283 302 70 104 53 47 96 84 83 76 77 97 105 119 130 190 30 320 327 56 97 83 72 98 127 132 167 168 160 171 131 126 123 131 149 133 122 117 119 121 128 135 128 136 131 136 132 129 131 126 128 127 134 133 120 118 116 118 120 122 117 118 115 107 104 102 100 100 98 96 94 89 88 89 92 90 81 84 89 89 89 89 91 94 94 92 91 88
276 260 211 282 319 294 337 272 297 322 286 352 91 95 94 53 96 92 89 85 94 109 253 100 54 26 77 356 332 67 102 94 94 115 134 181 128 164 140 132 129 129 134 131 123 115 123 118 124 123 126 145 145 138 141 136 134 130 131 129 133 138 126 122 120 119 120 121 122 122 121 116 113 110 107 105 105 105 103 96 94 94 97 93 91 100 98 94 90 89 92 94 96 97 94 90 90
299 315 250 205 232 73 283 289 252 240 289 26 56 77 79 61 98 101 107 103 58 26 12 222 346 140 155 41 12 92 221 143 135 105 137 114 139 165 141 140 129 135 125 113 107 114 122 124 123 129 141 144 148 148 140 141 139 132 135 132 137 132 127 129 119 123 127 127 127 129 126 118 114 112 111 110 112 113 114 111 103 101 95 97 98 91 90 92 93 92 93 95 95 98 100 96 91
315 337 274 170 259 219 255 264 274 293 45 325 62 73 72 105 98 114 119 114 180 81 122 316 89 299 141 109 81 60 22 114 133 135 114 136 137 157 142 139 133 129 116 112 113 118 124 124 130 134 143 144 143 148 157 147 142 141 147 139 126 122 126 137 113 122 128 131 134 134 127 118 118 115 115 114 114 112 106 105 102 99 102 103 103 100 98 97 98 100 101 99 100 98 99 100 94
253 284 326 318 313 220 249 251 252 249 50 5 40 96 108 92 134 128 136 204 158 197 148 100 331 347 61 188 103 56 59 43 86 103 121 129 144 142 159 133 141 130 125 125 117 122 127 130 131 139 141 144 139 142 155 147 147 139 142 131 132 136 140 126 130 130 132 134 136 138 125 123 120 118 117 117 113 111 111 112 116 111 102 97 97 102 103 104 102 103 103 105 103 103 99 96 97
244 203 246 296 260 261 276 271 282 86 132 103 93 51 21 98 123 164 132 106 119 240 145 153 248 183 157 141 84 125 79 104 104 117 127 137 137 146 175 144 132 129 123 116 120 129 136 133 132 135 142 148 143 130 129 135 133 114 118 142 136 139 142 138 136 138 141 144 141 141 128 126 123 121 118 115 114 112 116 119 116 118 113 112 111 106 107 109 107 104 104 107 109 106 100 94 88
292 201 287 296 326 287 283 258 260 55 96 112 128 146 148 109 165 236 154 146 147 137 143 94 141 243 20 107 121 139 120 116 121 123 131 137 142 157 162 137 124 125 120 122 133 140 147 137 134 135 142 146 147 142 139 134 129 123 125 144 149 146 146 157 139 130 137 148 146 138 130 127 127 121 121 118 116 115 117 119 114 114 118 113 107 108 107 112 113 111 110 109 110 105 101 94 88
296 227 189 271 270 283 259 273 260 226 109 99 95 116 143 167 161 216 174 145 114 162 80 84 276 247 278 89 55 67 122 126 138 132 139 139 150 166 149 141 124 120 127 135 139 136 144 139 138 136 129 130 118 100 132 148 146 146 138 102 128 148 157 152 146 142 143 144 146 137 132 133 130 127 124 123 119 119 117 121 124 122 122 120 114 113 119 113 117 122 121 116 109 109 100 96 87
287 272 128 238 250 251 271 296 338 79 122 125 174 126 113 160 226 192 190 180 117 169 138 151 20 349 206 165 153 147 137 144 134 134 139 138 160 163 154 120 127 127 134 136 134 134 145 137 136 134 130 134 131 124 104 107 154 159 157 143 114 111 164 162 150 147 146 148 148 145 139 139 133 130 128 125 120 123 125 119 122 128 128 126 126 123 119 127 129 130 128 127 120 111 107 99 92
244 312 292 286 265 267 296 329 305 302 266 183 133 130 142 154 200 224 162 257 141 142 179 177 117 97 227 160 120 138 154 146 130 137 133 153 148 166 147 125 137 131 137 140 140 143 142 146 143 140 142 141 145 130 115 109 108 123 135 146 115 102 141 154 152 151 149 149 149 147 141 141 135 131 132 126 125 126 123 117 119 122 127 129 130 127 129 133 134 131 137 136 133 124 114 107 97
262 254 291 277 325 297 286 272 307 323 345 41 82 125 158 162 220 171 140 209 151 165 17 155 38 73 282 96 162 155 152 137 137 132 142 149 152 158 137 131 134 138 141 154 152 149 144 156 150 145 141 152 153 140 138 129 127 128 126 119 120 109 106 130 134 140 139 142 143 142 138 150 136 134 131 127 123 114 106 107 116 131 135 136 135 145 143 139 142 140 144 148 143 131 120 112 101
284 325 304 286 291 305 286 267 309 317 18 70 77 139 147 200 163 52 265 206 54 87 99 63 92 132 346 301 141 159 143 133 135 140 147 142 153 147 125 134 134 139 151 167 152 158 153 166 151 148 158 158 161 158 154 145 146 137 130 126 125 125 120 122 120 121 132 129 138 136 132 134 126 131 132 124 118 119 112 105 112 127 138 137 142 151 153 146 150 154 154 150 141 133 121 111 105
268 301 288 261 252 265 272 284 214 263 178 92 217 113 157 62 3 166 58 4 119 51 124 135 103 72 65 81 61 117 124 129 136 140 135 138 141 143 116 128 139 147 158 178 164 173 160 175 152 155 165 174 161 179 161 152 154 146 141 136 134 131 131 130 129 129 131 129 136 133 129 132 130 134 133 129 131 129 128 122 128 154 137 139 148 156 151 158 160 160 166 154 146 127 114 103 94
209 333 261 237 256 241 262 282 289 230 116 148 168 159 199 143 105 40 232 313 151 155 229 116 153 138 90 90 110 114 120 122 132 132 125 132 137 146 139 149 153 162 166 187 174 185 169 171 154 153 173 182 166 185 164 158 156 151 148 145 139 138 135 133 132 131 131 135 133 140 145 146 151 145 146 139 140 135 125 133 123 123 129 136 134 142 158 165 174 176 171 155 138 122 115 118 115
166 205 218 249 253 240 239 248 250 320 248 131 175 186 216 141 168 120 22 123 302 124 225 130 86 70 109 121 124 121 124 132 139 143 143 147 156 155 161 166 164 166 177 192 188 190 184 179 163 163 175 181 172 184 160 154 158 165 158 150 147 142 136 134 139 153 156 151 152 152 169 183 173 162 168 152 146 126 133 128 124 122 122 125 138 146 162 181 184 183 177 182 169 138 168 162 159
213 225 223 242 229 247 270 291 297 273 278 132 137 220 256 234 154 155 159 199 206 199 200 171 151 115 113 129 125 135 141 142 152 159 159 161 172 172 177 173 172 169 177 191 192 193 191 188 177 161 174 181 177 174 149 148 159 173 181 165 163 161 155 158 170 168 178 161 169 171 190 198 192 169 175 159 155 148 138 137 133 130 131 128 124 131 116 101 198 181 167 204 146 148 244 229 199
202 246 229 233 247 270 266 260 293 331 23 317 328 150 174 128 140 104 225 219 177 214 187 200 189 159 150 147 144 144 154 152 161 169 170 170 184 176 176 184 185 181 176 187 191 194 192 191 189 175 171 174 167 162 154 145 162 174 182 182 175 174 166 181 187 189 190 172 176 182 204 202 183 131 136 139 130 122 122 123 131 131 132 136 137 130 140 148 163 181 194 223 248 214 242 237 216
168 219 232 244 236 236 238 259 268 240 276 286 319 86 165 232 113 152 178 263 230 207 216 191 198 179 162 160 157 154 157 158 170 174 174 176 198 179 184 184 193 188 176 175 191 200 195 191 182 190 170 167 164 165 161 166 162 174 180 190 181 178 179 181 197 200 191 187 172 196 201 200 145 144 144 147 148 143 144 146 147 156 155 158 160 169 179 189 187 195 201 217 228 222 227 249 245
260 221 218 244 263 276 285 300 7 6 38 39 303 153 219 122 135 174 218 214 235 227 227 206 185 191 158 161 168 160 163 165 174 177 180 182 189 188 186 178 181 195 173 178 186 191 204 193 181 184 174 169 171 168 167 177 166 173 177 196 184 173 180 183 188 196 194 196 178 193 209 191 152 149 157 164 171 154 157 162 172 176 174 177 188 192 190 186 194 196 188 198 214 217 221 232 235
232 241 255 241 244 258 275 295 58 347 344 268 251 238 261 195 194 187 212 237 256 81 48 20 181 186 162 164 159 166 168 172 176 182 183 184 186 193 190 185 180 190 181 180 182 186 190 192 183 178 178 171 177 175 166 176 180 176 173 187 186 182 172 180 188 189 194 192 188 188 198 187 169 155 162 174 192 164 168 166 182 191 187 177 192 208 204 186 191 198 192 194 206 215 218 214 223
248 241 219 246 262 267 271 283 104 165 239 277 290 321 273 175 228 177 213 225 253 232 84 83 35 50 125 149 165 170 175 175 184 185 187 189 186 189 187 187 179 172 175 188 182 186 189 188 186 177 180 172 180 190 187 184 180 183 183 182 184 184 174 179 185 189 184 189 188 187 183 181 179 168 167 166 183 175 171 178 181 193 185 170 190 200 203 202 195 202 206 208 204 218 199 204 220
252 240 245 265 267 250 244 250 227 161 233 267 294 288 260 262 253 265 248 230 212 231 118 113 93 98 130 145 167 177 180 179 182 186 188 193 192 186 190 189 172 168 185 190 184 184 189 189 187 187 184 185 186 194 210 183 173 186 192 182 186 180 184 182 182 182 179 187 188 187 182 193 181 182 167 169 169 180 172 177 188 194 175 193 180 185 184 203 198 193 223 246 224 208 201 223 219
270 285 318 286 255 267 278 289 289 279 253 255 264 247 247 253 286 264 252 257 275 233 148 149 143 148 162 164 177 179 186 186 181 180 191 190 184 183 191 194 186 182 186 181 183 187 180 182 189 194 191 188 189 198 209 198 176 179 197 194 186 179 183 187 185 180 181 187 193 188 184 188 185 179 168 167 165 177 178 184 189 200 188 192 195 197 190 208 207 188 206 221 224 214 211 215 206
326 299 285 294 296 277 263 267 243 233 217 229 240 243 242 235 202 251 206 228 234 238 198 180 172 179 185 178 177 186 186 188 185 184 178 183 189 191 191 191 198 194 173 180 183 181 169 175 189 191 194 186 193 202 201 208 185 180 183 195 193 182 180 188 196 190 186 188 187 178 180 189 194 190 174 175 171 173 180 187 194 196 200 198 194 196 184 192 220 219 205 211 212 217 215 215 203
334 329 301 286 288 283 275 261 257 200 237 218 245 255 253 250 194 235 213 208 278 222 221 198 184 196 193 194 182 185 190 191 183 174 183 182 191 192 192 191 197 192 183 184 178 171 167 179 184 189 194 190 189 198 199 203 203 189 177 186 197 184 172 190 207 199 198 193 183 176 182 189 205 210 184 177 171 174 179 191 199 194 197 198 198 192 189 198 205 227 235 211 212 222 229 221 221
288 328 331 310 291 273 253 250 254 174 230 197 208 260 247 226 232 231 217 249 235 285 265 217 182 194 207 200 192 179 192 186 176 186 191 191 191 192 196 193 188 192 198 182 174 169 178 177 183 189 191 189 192 198 201 198 204 197 182 183 191 186 179 185 203 202 204 200 191 175 178 180 198 215 209 180 173 173 178 187 202 199 191 195 199 188 191 214 208 213 252 246 256 276 276 267 247
279 304 301 313 288 269 252 258 257 230 194 212 138 262 233 222 235 242 197 221 240 242 236 239 204 192 201 205 196 188 186 187 188 192 191 188 185 191 200 195 189 190 189 181 172 177 177 176 177 182 189 188 192 200 198 195 207 206 191 183 181 190 191 186 197 204 202 201 195 184 178 179 186 208 214 208 175 172 180 185 193 196 190 196 202 192 196 210 214 199 218 218 220 230 242 251 255
179 156 287 259 287 255 253 232 239 247 180 198 185 250 252 238 217 227 221 209 209 225 224 216 217 205 192 199 201 194 194 193 197 194 192 187 184 188 193 190 189 190 185 184 185 181 174 174 174 184 185 189 186 196 198 190 192 202 209 198 186 181 190 191 193 200 201 203 193 197 185 180 183 190 207 206 201 182 180 186 190 191 183 193 206 203 189 198 211 217 200 210 212 215 229 232 226
146 142 236 245 244 261 289 267 220 232 188 193 195 250 249 251 253 273 260 213 212 225 228 219 222 222 202 190 201 200 201 195 201 200 194 192 185 186 185 188 185 187 188 189 188 176 178 176 176 181 181 190 187 191 193 183 183 191 205 210 195 185 183 190 195 203 208 197 198 193 190 182 182 187 197 205 207 198 186 187 194 185 184 190 203 208 187 189 201 222 216 197 207 219 214 227 222
184 209 235 217 220 257 274 246 272 255 235 194 195 240 131 225 227 229 234 257 213 219 229 224 219 226 227 197 193 205 206 198 198 203 198 193 194 186 185 186 185 186 184 183 184 184 183 179 177 183 181 187 186 185 187 192 183 187 194 202 202 191 188 189 194 191 209 213 197 189 187 184 189 193 204 205 205 201 196 196 195 187 185 189 192 201 197 189 191 208 220 210 204 218 212 215 219
204 194 230 217 231 239 247 267 237 248 271 236 200 232 244 286 295 294 294 239 229 211 228 233 222 218 225 208 194 195 204 205 201 200 201 194 196 194 186 185 185 181 183 183 183 186 188 183 182 184 179 183 185 183 186 189 195 186 188 193 198 205 199 193 193 188 199 213 204 196 186 185 189 193 204 204 204 203 198 200 203 190 185 188 190 194 204 193 195 198 208 211 210 218 222 213 217
203 189 216 226 226 235 253 252 231 259 234 241 213 227 237 238 248 253 270 276 284 223 227 234 232 227 225 213 206 199 197 205 212 197 197 198 193 194 191 182 183 180 182 183 182 185 186 188 182 184 179 180 185 182 182 186 192 197 190 190 194 205 207 196 191 194 195 200 211 204 191 186 190 193 201 202 201 206 204 197 197 196 186 188 191 200 202 201 201 204 201 210 211 212 216 222 217
206 197 214 220 222 219 226 240 260 169 336 259 221 241 248 235 225 250 246 257 256 254 237 243 243 245 241 229 224 216 206 209 204 188 190 195 195 189 188 182 184 184 180 183 182 179 183 184 182 183 186 182 181 180 175 183 189 197 201 199 198 199 201 196 195 196 194 201 205 206 202 196 190 195 199 204 203 203 208 203 196 195 193 185 194 203 208 202 203 204 211 208 215 217 212 215 222
210 220 227 227 230 238 212 212 126 161 166 254 273 280 274 259 251 238 234 235 240 244 238 222 223 232 242 254 246 233 221 219 200 186 181 189 190 186 185 183 182 183 183 181 183 184 182 184 179 187 191 183 181 181 181 181 188 194 205 209 207 196 195 191 196 198 199 201 199 203 205 204 198 195 199 202 205 202 204 205 202 203 198 195 197 206 204 207 204 202 207 210 217 219 222 209 217
229 228 221 230 227 239 223 239 129 233 164 255 254 276 270 280 276 264 269 258 246 234 236 242 228 218 225 228 235 239 241 230 156 164 180 178 181 182 180 180 177 182 194 184 187 189 184 184 184 187 184 190 190 189 185 186 190 192 191 199 199 197 190 190 195 196 202 200 199 201 204 205 204 198 197 200 205 202 202 203 205 206 201 205 206 201 201 201 202 203 197 215 215 215 226 197 204
226 231 233 235 229 235 235 242 204 141 205 253 254 261 265 265 272 282 266 252 249 242 241 239 230 222 228 222 223 229 231 230 189 189 194 190 179 182 178 185 190 192 190 190 193 189 187 187 189 184 185 190 194 192 188 193 192 192 191 193 194 200 198 190 190 190 192 200 202 204 205 206 206 202 194 198 201 202 204 203 206 203 206 200 202 208 202 203 205 203 197 202 212 222 221 212 206
230 222 233 234 220 211 229 213 185 213 205 270 233 256 261 256 249 250 260 271 271 258 239 240 239 223 214 216 212 217 222 222 214 201 203 201 191 185 188 192 195 191 188 198 198 195 192 191 191 187 189 191 192 192 197 200 197 196 197 189 193 192 188 176 179 181 191 195 203 201 205 206 204 203 197 198 201 202 201 204 203 206 205 201 202 206 207 209 204 207 204 205 192 210 209 225 208
221 229 232 237 237 233 242 188 196 190 253 260 268 273 267 242 247 245 245 258 263 261 264 249 236 240 234 214 216 211 218 212 214 214 209 203 202 198 195 200 195 192 193 197 198 196 197 196 193 191 190 190 193 193 194 190 181 188 195 197 181 190 167 176 178 200 200 198 200 200 204 199 202 202 199 199 200 202 203 204 203 206 207 204 203 208 209 209 208 209 207 208 205 207 212 212 217
226 224 227 238 234 237 239 238 261 245 247 208 220 285 263 241 236 237 233 237 249 248 248 248 236 234 236 237 223 218 219 212 208 211 211 208 205 203 203 202 198 200 203 203 199 198 197 198 197 195 194 191 194 195 190 184 184 184 181 187 189 191 196 189 195 200 198 200 204 198 194 198 200 202 202 201 200 200 204 204 202 203 208 208 207 210 211 207 210 209 210 210 215 213 211 209 218
223 216 210 229 239 240 228 238 200 240 242 207 176 234 275 230 229 216 218 223 237 241 237 243 238 236 235 234 230 225 221 224 227 226 219 215 211 204 201 201 202 203 208 206 202 198 199 200 198 195 194 194 194 193 186 186 189 190 191 194 196 194 195 202 203 201 199 204 195 194 200 197 200 201 204 203 200 199 203 204 205 205 206 210 209 209 212 211 208 208 206 212 215 210 206 223 218
229 192 199 205 222 226 231 230 228 261 298 280 272 230 266 276 237 240 253 261 239 234 239 240 237 235 235 234 233 229 225 224 225 227 227 225 217 208 202 203 202 206 206 203 200 201 201 201 196 196 197 195 192 189 187 189 193 194 195 199 203 208 207 204 196 198 197 190 195 199 195 201 200 202 203 203 203 199 200 204 205 207 208 208 206 211 212 210 210 209 206 211 212 208 206 215 218
225 244 185 209 207 217 222 226 244 245 264 260 240 233 273 265 255 216 229 249 253 259 254 236 231 231 229 229 232 232 231 231 230 231 229 226 225 223 219 207 208 208 205 200 200 202 202 201 196 194 195 194 193 189 189 193 196 196 197 200 207 213 212 213 199 194 191 189 196 196 196 200 199 202 204 203 202 202 199 202 202 207 210 210 207 213 212 208 208 206 203 205 208 209 209 210 209
182 82 97 54 56 41 215 224 235 250 231 247 241 208 253 269 261 220 206 234 242 241 241 251 258 244 227 225 224 227 231 233 231 232 230 228 226 226 225 226 214 206 205 202 203 201 201 197 197 193 196 196 194 191 191 195 197 197 199 203 209 211 208 206 191 197 198 189 198 196 197 197 198 198 203 204 203 204 203 201 204 208 211 210 209 215 213 209 208 207 205 204 204 208 207 205 210
96 131 145 113 69 95 49 60 43 327 241 239 244 219 225 268 259 224 216 229 236 240 242 241 235 247 248 226 220 223 227 229 228 228 228 228 225 223 223 226 228 219 206 203 202 198 196 196 196 196 198 197 196 195 193 197 196 197 203 204 208 211 205 201 199 202 198 194 199 198 196 199 195 199 197 202 204 203 205 203 206 210 210 211 212 213 217 214 208 206 205 202 203 204 206 209 213
127 199 171 117 257 34 8 358 146 239 249 234 233 225 214 243 265 221 234 239 233 235 240 225 224 229 238 241 236 228 224 226 230 228 229 231 234 231 226 228 228 225 216 206 204 200 197 197 196 199 201 199 198 198 196 199 197 199 204 205 208 212 204 201 205 206 198 199 198 198 195 193 200 197 195 199 204 203 203 206 208 208 210 212 214 212 216 218 212 205 204 205 206 205 207 206 209
170 147 137 154 212 107 239 159 231 221 237 219 212 212 226 229 252 247 250 222 223 230 238 232 218 219 225 232 234 233 226 224 223 227 230 233 230 230 226 228 225 225 222 215 207 202 202 200 197 199 205 202 200 198 198 199 198 202 203 205 210 209 206 207 210 212 205 202 199 197 189 198 194 194 199 200 204 199 199 203 204 205 208 211 214 213 216 214 215 209 208 209 210 208 206 205 208
176 186 170 172 206 212 238 222 235 255 240 231 233 189 234 251 269 237 246 244 242 235 230 233 239 237 225 218 225 224 224 223 225 224 227 229 229 228 225 224 222 223 215 208 202 193 194 199 200 202 209 203 201 198 200 200 201 204 203 205 207 204 208 210 211 211 209 206 198 200 199 199 197 200 198 203 201 195 199 205 203 206 208 206 208 214 214 212 212 214 212 211 212 214 209 209 212
198 193 190 198 194 188 213 211 219 222 240 231 219 207 225 156 240 162 228 238 229 230 235 230 218 214 207 212 219 222 221 225 223 228 232 233 233 225 219 217 220 220 214 205 197 194 190 197 200 205 211 207 200 201 199 201 205 206 204 206 207 205 208 209 212 210 208 206 203 202 205 203 203 205 203 205 190 195 201 202 203 204 202 202 204 210 214 209 211 214 216 215 215 211 212 210 212
203 199 174 208 218 188 241 206 223 237 322 279 179 204 188 209 268 256 306 261 231 222 228 232 239 239 239 240 224 221 222 224 228 238 245 243 230 214 208 211 215 215 212 203 196 195 197 201 203 206 210 206 201 201 202 203 205 204 205 205 208 207 207 209 213 212 211 209 209 206 207 205 207 205 204 194 196 195 199 201 201 204 200 201 203 206 209 208 205 209 214 213 217 206 211 212 215
188 190 208 211 211 217 275 309 248 309 278 249 320 293 314 336 278 260 251 253 248 217 213 221 229 232 235 242 234 224 227 233 242 238 230 227 229 225 214 213 216 216 213 207 204 198 198 202 204 209 214 209 205 205 205 204 204 203 208 209 208 208 207 207 209 208 208 208 210 213 211 209 206 204 202 197 195 197 197 197 199 201 199 199 202 203 206 207 203 206 210 212 217 208 207 213 210
123 209 208 142 55 68 186 235 239 236 250 260 230 250 246 191 279 175 221 235 196 221 215 217 220 216 218 223 219 221 224 227 233 229 219 216 221 228 231 226 221 217 214 213 212 208 203 202 202 207 211 208 211 208 206 205 204 205 207 208 209 208 209 211 210 210 206 206 211 214 213 209 208 204 198 195 195 195 197 195 199 199 200 198 201 201 203 205 203 206 207 210 212 204 212 215 212
210 212 149 184 104 210 201 326 235 234 237 255 241 248 243 201 252 283 261 224 216 216 219 217 219 213 212 215 220 221 221 225 231 225 219 221 221 227 228 228 229 226 218 212 209 201 202 205 206 206 210 210 209 207 207 209 207 207 207 206 205 207 207 208 209 209 202 206 210 211 211 214 208 200 196 193 194 195 196 196 198 199 199 201 199 201 200 202 203 208 206 208 206 205 212 217 216
209 65 191 179 169 213 195 201 255 230 247 238 257 238 241 196 244 251 251 253 234 216 214 216 215 209 210 218 224 225 224 225 217 204 210 220 229 230 227 226 228 224 221 213 202 200 207 208 203 210 214 208 205 208 207 208 207 205 207 204 206 205 205 205 205 204 206 209 211 210 211 209 208 195 200 198 196 196 194 194 196 197 199 198 200 201 199 201 203 208 204 206 206 204 212 216 214
199 200 211 194 209 31 202 197 204 215 232 229 262 260 205 203 218 235 237 242 240 231 214 212 213 210 211 216 221 224 224 218 209 202 210 220 227 226 224 227 233 232 218 206 203 205 210 207 212 211 207 206 205 208 205 209 202 205 202 203 204 200 201 201 202 204 208 212 211 209 210 209 191 200 197 198 199 197 193 193 193 196 196 196 199 201 199 200 204 206 204 205 205 206 212 216 212
202 195 212 203 191 191 193 226 188 219 224 228 225 251 256 246 198 229 228 238 234 237 230 210 206 206 211 225 231 227 224 220 209 208 212 220 211 198 183 123 96 137 168 194 209 201 205 209 217 220 223 220 213 212 208 208 204 203 204 205 204 197 197 198 202 204 209 211 211 207 205 196 202 205 194 200 199 195 192 191 194 198 198 198 200 202 201 199 203 204 205 202 206 206 210 214 210